Preview of NWS' New Version of Forecast
This preview is not operational and should not be used for support decisions.

Regional Weather Roundup (RWR)

Issued by National Weather Service (NWS)

                            
000
ASUS45 KCYS 182210
RWRWY 

WYOMING REGIONAL WEATHER ROUNDUP
NATIONAL WEATHER SERVICE CHEYENNE WY
400 PM MDT THU APR 18 2019

NOTE:  "FAIR" INDICATES FEW OR NO CLOUDS BELOW 12,000 FEET
WITH NO SIGNIFICANT WEATHER AND/OR OBSTRUCTIONS TO VISIBILITY.

WYZ001-182300-
...YELLOWSTONE NATIONAL PARK...
  
CITY           SKY/WX    TMP DP  RH WIND       PRES   REMARKS
LK YELLOWSTONE   N/A     49  23  36 W9G20     30.33S                  
W YELLOWSTONE  NOT AVBL                                               

$$
WYZ002>013-054>058-071-098>099-182300-
...NORTHERN WYOMING...
  
CITY           SKY/WX    TMP DP  RH WIND       PRES   REMARKS
JACKSON        SUNNY     50  29  44 W15       30.32S                  
CODY           PTSUNNY   64  26  23 VRB7      30.16F                  
GREYBULL       SUNNY     66  26  22 N7        30.12F                  
WORLAND        SUNNY     65  25  22 N8        30.14F                  
SHERIDAN       SUNNY     64  30  27 N18G26    30.13F                  
BUFFALO        SUNNY     60  29  30 N17G23    30.15F                  
GILLETTE       MOSUNNY   56  26  31 N16G28    30.14F                  
HULETT         FAIR      55  25  30 NW18G30   30.16S                  
NEWCASTLE      FAIR      54  19  26 NW22G29   30.15S                  

$$
WYZ014>020-022>026-101>103-182300-
...CENTRAL WYOMING...
  
CITY           SKY/WX    TMP DP  RH WIND       PRES   REMARKS
BIG PINEY      SUNNY     58  24  27 N16G26    30.31S                  
PINEDALE       SUNNY     54  28  37 W21G26    30.30S                  
DUBOIS         FAIR      55  23  28 NW23G29   30.25F                  
LANDER         SUNNY     64  30  27 E10       30.16F                  
RIVERTON       SUNNY     60  26  27 E7        30.18F                  
CASPER         MOSUNNY   58  26  29 W13G20    30.17F                  
DOUGLAS        MOSUNNY   57  27  31 N20G26    30.17F                  

$$
WYZ021-027>030-104>119-182300-
...SOUTHERN WYOMING...
  
CITY           SKY/WX    TMP DP  RH WIND       PRES   REMARKS
EVANSTON       SUNNY     55  25  31 W15       30.36F                  
KEMMERER       SUNNY     55  27  33 W20G26    30.36S                  
FORT BRIDGER   FAIR      61  27  27 NW17G24   30.37S                  
ROCK SPRINGS   SUNNY     60  24  25 W18G30    30.26F                  
DIXON          PTSUNNY   58  26  29 W5        30.29F                  
RAWLINS        SUNNY     57  23  26 NW17G24   30.25F                  
SARATOGA       PTSUNNY   55  23  28 W13G20    30.27F                  
LARAMIE        MOSUNNY   52  21  29 NW33G43   30.20F                  
CHEYENNE       MOSUNNY   52  21  29 N25G38    30.15F                  
TORRINGTON     MOSUNNY   57  20  23 N26G36    30.12F                  
PINE BLUFFS    FAIR      55  21  26 N33G43    30.14F                  

$$